Location: ???????????
(54.5822°N, 39.1075°E)
Time: 02:25:28
(UTC+00:00)

USA 229 - Pass Details

Date: 19 May 2025
Orbit: 872 x 1339 km, 63.4° (Epoch: 10 June)

Event Time Altitude Azimuth Distance (km) Brightness Sun altitude
Exits shadow 21:33:30 19° 208° (SSW) 2,073 4.7 -15.4°
Maximum altitude 21:37:59 66° 131° (SE) 1,086 3.6 -15.3°
Drops below altitude 10° 21:44:49 10° 51° (NE) 2,949 6.7 -15.3°
Sets 21:47:39 0° 49° (NE) 3,982 7.5 -15.2°
